Location: G�ndlingen
(48.0142°N, 7.6396°E)
Time: 17:01:29
(UTC+00:00)

Cosmos 1602 Rocket - Pass Details

Date: 05 July 2020
Orbit: 603 x 633 km, 82.5° (Epoch: 12 August)

Event Time Altitude Azimuth Distance (km) Brightness Sun altitude
Rises 20:23:05 0° 198° (SSW) 2,884 6.7 -7.4°
Reaches altitude 10° 20:25:19 10° 203° (SSW) 1,987 5.9 -7.6°
Maximum altitude 20:29:40 57° 282° (WNW) 738 4.3 -8.1°
Drops below altitude 10° 20:34:05 10° 2° (N) 2,020 6.9 -8.6°
Sets 20:36:23 0° 7° (N) 2,936 7.7 -8.9°
